INMARSAT 3-F5
1 25153U 98006B   03037.01271413  .00000142  00000-0  10000-3 0  8407
2 25153   0.4525 356.9427 0004508 320.3308 208.0530  1.00275959 18371
HOT BIRD 4
1 25237U 98013A   03013.80550721  .00000107  00000-0  10000-3 0  3250
2 25237   0.0242 116.4838 0007929 193.6371 105.7449  1.00276095 18185
NOAA 15
1 25338U 98030A   03037.09328904  .00000202  00000-0  10593-3 0  9961
2 25338  98.5501  59.5811 0010758 358.5566   1.5580 14.24238665246023
RESURS O1-N4
1 25394U 98043A   03037.40881990  .00000126  00000-0  73893-4 0  4414
2 25394  98.6350 115.5623 0002046 123.3446 236.7930 14.23872739237800
TMSAT
1 25396U 98043C   03035.97011131 -.00000043 +00000-0 +00000-0 0 08248
2 25396 098.6295 113.3420 0003274 153.1916 206.9434 14.23506414237596
TECHSAT 1B
1 25397U 98043D   03035.63506632 -.00000043 +00000-0 -83465-7 0 01356
2 25397 098.6227 111.9131 0001642 150.2515 209.8757 14.22956023237511
ASTRA 2A
1 25462U 98050A   03037.00000000  .00000150  00000-0  00000+0 0  5300
2 25462   0.0385 308.7109 0004824 280.8620 294.3465  1.00272094 16318
EUTELSAT W2
1 25491U 98056A   03036.85087736  .00000104  00000-0  00000+0 0  5737
2 25491   0.0137 106.7650 0004073 150.7047 200.4122  1.00272599 15920
HOT BIRD 5
1 25495U 98057A   03035.83327321  .00000152  00000-0  00000+0 0  4985
2 25495   0.0140 177.2392 0004088 140.2514 150.1503  1.00275202 15886
SEDSAT 1
1 25509U 98061B   03036.71314972  .00000705  00000-0  12799-3 0  7723
2 25509  31.4279 225.7753 0357762 190.6789 168.6064 14.27411462223471
PAN SAT
1 25520U 98064B   03035.97864957 +.00002906 +00000-0 +14649-3 0 06369
2 25520 028.4590 314.3667 0005515 201.0861 158.9512 15.13808697235524
ISS (ZARYA)
1 25544U 98067A   03037.51899306  .00028139  00000-0  34121-3 0  6606
2 25544  51.6375 316.5295 0005568 117.5764 237.0352 15.60385930240610
ORSTED
1 25635U 99008B   03036.50854753  .00000920  00000-0  24018-3 0  8242
2 25635  96.4489  25.8671 0146178  11.0981 349.3381 14.44809979208050
SUNSAT
1 25636U 99008C   03035.98718696 +.00000465 +00000-0 +12938-3 0 07329
2 25636 096.4516 024.1558 0150140 018.9892 341.6819 14.42938440207851
UOSAT 12
1 25693U 99021A   03037.49300089  .00000571  00000-0  10165-3 0  6831
2 25693  64.5578  47.7454 0019128 316.8177  43.1440 14.76373138204473
FENGYUN 1C
1 25730U 99025A   03037.39181246  .00000070  00000-0  61561-4 0  7605
2 25730  98.6348  62.2486 0015075  39.8353 320.3924 14.11732880192914
ASTRA 1H
1 25785U 99033A   03037.00000000  .00000120  00000-0  10000-3 0  3704
2 25785   0.0122 319.8851 0002995  65.1991 129.8363  1.00273184 13377
TERRA
1 25994U 99068A   03037.22702447  .00000574  00000-0  13740-3 0  6713
2 25994  98.1995 113.6375 0001071  60.2637 299.8668 14.57116647166879
JAWSAT
1 26061U 00004A   03037.19247625  .00000525  00000-0  19256-3 0  7589
2 26061 100.2096  91.9641 0034911 314.9951  44.8402 14.37809116158753
OPAL
1 26063U 00004C   03036.17266571  .00000149  00000-0  71978-4 0  7143
2 26063 100.2149  88.3219 0037164 325.0601  34.8137 14.35475176158468
ASUSAT
1 26065U 00004E   03036.54799311  .00000175  00000-0  80852-4 0  7262
2 26065 100.2115  88.9103 0037032 325.1198  34.7556 14.35502570158516
GOES 11
1 26352U 00022A   03036.42876972 -.00000037  00000-0  10000-3 0    96
2 26352   0.1035 102.8187 0003684 213.7927 219.8100  1.00263676 10102
EUTELSAT W4
1 26369U 00028A   03036.22543983  .00000153  00000-0  00000+0 0  3491
2 26369   0.0319   7.5430 0003122 307.7958 296.8312  1.00271875  9918
FENGYUN 2B
1 26382U 00032A   03037.13366367  .00000000  00000-0  10000-3 0  7873
2 26382   0.5869 287.7398 0000924 197.0923 163.1797  1.00275883  9592
EUTELSAT W1
1 26487U 00052A   03036.85585087  .00000068  00000-0  10000-3 0  3512
2 26487   0.0062 160.2856 0003572  62.0616 231.3266  1.00273797  8897
ASTRA 2B
1 26494U 00054A   03037.00000000  .00000150  00000-0  00000+0 0  2535
2 26494   0.0178 354.5658 0005000 302.8402 226.4937  1.00276704  8797
NOAA 16
1 26536U 00055A   03037.03862870  .00000513  00000-0  30487-3 0  1973
2 26536  98.9007 345.4155 0010120 346.1122  13.9774 14.11898685122385
SAUDISAT 1A
1 26545U 00057A   03035.61636377 +.00001385 +00000-0 +20233-3 0 04089
2 26545 064.5584 074.8057 0053044 241.1073 118.4724 14.78942739127169
UNISAT
1 26547U 00057C   03035.60987836 +.00002149 +00000-0 +29594-3 0 04278
2 26547 064.5574 077.1138 0060193 243.4530 116.0408 14.79682882127122
TIUNGSAT 1
1 26548U 00057D   03036.60561965  .00001672  00000-0  22883-3 0  4118
2 26548  64.5570  64.7977 0046210 240.1194 119.5303 14.81223257127443
SAUDISAT 1B
1 26549U 00057E   03036.52210659  .00001122  00000-0  17111-3 0  6841
2 26549  64.5543  76.0692 0057365 241.0895 118.4456 14.77883143127218
AMSAT OSCAR 40
1 26609U 00072B   03035.10689355 -.00000169 +00000-0 +10000-3 0 03108
2 26609 008.0513 066.8265 7939440 140.0872 318.9916 01.25596472010406
GOES 12
1 26871U 01031A   03036.18022041 -.00000143  00000-0  10000-3 0  8069
2 26871   0.3606 276.6969 0003236   0.8449 183.3677  1.00363181  5705
PCSAT
1 26931U 01043C   03036.85803713  .00000154  00000-0  93183-4 0  3943
2 26931  67.0482 288.3380 0005054 262.6077  97.4448 14.29107815 70535
SAPPHIRE
1 26932U 01043D   03036.90765340  .00000105  00000-0  73817-4 0  3895
2 26932  67.0560 287.9182 0005400 239.4562 120.6005 14.29289224 70560
ENVISAT
1 27386U 02009A   03037.31952471  .00000218  00000-0  97183-4 0  9142
2 27386  98.5460 106.0454 0000959  93.0187 267.1107 14.32253523 48995
IDEFIX/ARIANE 42P
1 27422U 02021B   03037.41032499  .00000229  00000-0  11017-3 0  2266
2 27422  98.6964 116.6670 0012611 181.7736 178.3402 14.27962560 39720
FENGYUN 1D
1 27431U 02024B   03036.88510165  .00000133  00000-0  10091-3 0  2085
2 27431  98.7710  86.2056 0015792 157.8451 202.3405 14.09178388 37581
NOAA 17
1 27453U 02032A   03037.12263737  .00000259  00000-0  13369-3 0  2941
2 27453  98.7603 108.3991 0012453  35.9336 324.2677 14.23285178 32198
HOT BIRD 6
1 27499U 02038A   03013.80550721  .00000106  00000-0  10000-3 0   665
2 27499   0.0928  32.8693 0008090 290.3889  92.5421  1.00271722  1476
RUBIN 2
1 27605U 02058A   03036.66611987 -.00002972  00000-0 -45363-3 0   482
2 27605  64.5561 236.4221 0031817 118.8046 241.6093 14.71356852  6910
